FW9451 Weather Reports


time (UTC)temp
C
wind
direction
speed
KPH
gust
KPH
rain 1hr
cm
rain 24hr
cm
rain mn
cm
humidity
%
barometer
mb
20260504231549 18 231 9.7 14.5 0.00 0.00 0.00 38 1006.5
20260504230049 18 229 14.5 25.7 0.00 0.00 0.00 38 1006.2
20260504224550 18 219 9.7 22.5 0.00 0.00 0.00 38 1006.2
20260504223109 18 227 12.9 25.7 0.00 0.00 0.00 38 1006.1
20260504221554 18 247 4.8 16.1 0.00 0.00 0.00 39 1006.2
20260504220050 19 249 12.9 22.5 0.00 0.00 0.00 37 1006.1
20260504214548 19 293 9.7 20.9 0.00 0.00 0.00 36 1006.0
20260504213100 19 211 12.9 32.2 0.00 0.00 0.00 37 1006.1
20260504211545 19 246 20.9 32.2 0.00 0.00 0.00 37 1006.0
20260504210057 19 252 8.0 19.3 0.00 0.00 0.00 38 1005.9
20260504204555 19 215 8.0 20.9 0.00 0.00 0.00 39 1005.9
20260504203109 18 218 14.5 27.4 0.00 0.00 0.00 39 1005.9
20260504201601 18 297 16.1 29.0 0.00 0.00 0.00 39 1006.0
20260504200057 18 302 9.7 30.6 0.00 0.00 0.00 42 1006.2
20260504194552 18 261 11.3 27.4 0.00 0.00 0.00 42 1006.1
20260504193055 18 269 12.9 29.0 0.00 0.00 0.00 41 1006.1
20260504191557 18 280 14.5 33.8 0.00 0.00 0.00 41 1006.2
20260504190052 17 280 17.7 32.2 0.00 0.00 0.00 43 1006.3
20260504184551 17 257 9.7 20.9 0.00 0.00 0.00 43 1006.6
20260504183050 15 256 4.8 22.5 0.00 0.00 0.00 48 1006.5
20260504181557 16 284 3.2 22.5 0.00 0.00 0.00 45 1006.5
20260504180048 16 214 16.1 29.0 0.00 0.00 0.00 43 1006.6
20260504174549 16 259 17.7 33.8 0.00 0.00 0.00 43 1006.4
20260504173048 16 292 14.5 32.2 0.00 0.00 0.00 42 1006.7
20260504171557 16 241 25.7 41.8 0.00 0.00 0.00 38 1006.6
20260504081552 4 211 8.0 16.1 0.00 0.00 0.00 63 1008.8
20260504044556 3 225 9.7 16.1 0.00 0.00 0.00 65 1008.6
20260504043058 3 232 4.8 11.3 0.00 0.00 0.00 66 1008.6
20260504041554 4 246 8.0 14.5 0.00 0.00 0.00 64 1008.6
20260504040106 4 250 4.8 11.3 0.00 0.00 0.00 65 1008.6
20260504034613 4 252 6.4 12.9 0.00 0.00 0.00 64 1008.3
20260504033051 4 250 6.4 12.9 0.00 0.00 0.00 65 1008.3
20260504031552 4 234 4.8 11.3 0.00 0.00 0.00 66 1008.3
20260504030118 4 235 1.6 4.8 0.00 0.00 0.00 65 1008.2
20260504024558 5 236 3.2 8.0 0.00 0.00 0.00 65 1008.3
20260504023050 5 262 3.2 11.3 0.00 0.00 0.00 63 1008.3
20260504021559 5 244 3.2 11.3 0.00 0.00 0.00 64 1008.2
20260504020052 5 234 3.2 9.7 0.00 0.00 0.00 63 1008.1
20260504014601 6 247 4.8 12.9 0.00 0.08 0.00 62 1008.1
20260504013056 6 298 4.8 12.9 0.00 0.08 0.00 59 1008.1
20260504011553 6 298 4.8 14.5 0.00 0.08 0.00 58 1007.8
20260504010054 6 246 6.4 16.1 0.00 0.08 0.00 57 1007.7
20260504004601 6 317 6.4 14.5 0.00 0.13 0.00 55 1007.5
20260504003055 7 9 6.4 29.0 0.00 0.13 0.00 54 1007.2
20260504001604 7 279 6.4 22.5 0.00 0.13 0.00 53 1007.0
20260504000058 7 294 9.7 27.4 0.00 0.13 0.00 53 1006.8
20260503234603 7 252 6.4 19.3 0.00 0.20 0.00 51 1006.6
20260503233053 8 9 8.0 32.2 0.00 0.20 0.00 49 1006.2